TimeCST,TemperatureF,Dew PointF,Humidity,Sea Level PressureIn,VisibilityMPH,Wind Direction,Wind SpeedMPH,Gust SpeedMPH,PrecipitationIn,Events,Conditions,WindDirDegrees,DateUTC
12:54 AM,10.9,3.0,70,30.23,10.0,NW,10.4,-,N/A,,Clear,320,2013-01-13 06:54:00
1:54 AM,10.0,3.0,73,30.22,10.0,NW,10.4,-,N/A,,Clear,320,2013-01-13 07:54:00
2:54 AM,10.0,3.0,73,30.24,10.0,NW,9.2,-,N/A,,Clear,320,2013-01-13 08:54:00
3:54 AM,10.0,3.0,73,30.22,10.0,NNW,9.2,-,N/A,,Clear,340,2013-01-13 09:54:00
4:54 AM,9.0,3.0,77,30.25,10.0,NW,8.1,-,N/A,,Clear,320,2013-01-13 10:54:00
5:54 AM,9.0,1.9,73,30.26,10.0,NW,4.6,-,N/A,,Clear,310,2013-01-13 11:54:00
6:54 AM,8.1,1.9,76,30.28,10.0,NW,4.6,-,N/A,,Clear,320,2013-01-13 12:54:00
7:54 AM,7.0,1.0,77,30.32,10.0,WSW,3.5,-,N/A,,Clear,250,2013-01-13 13:54:00
8:54 AM,10.0,1.9,70,30.33,10.0,WNW,4.6,-,N/A,,Clear,290,2013-01-13 14:54:00
9:54 AM,12.9,3.0,65,30.33,10.0,NW,8.1,-,N/A,,Clear,320,2013-01-13 15:54:00
10:54 AM,16.0,3.0,57,30.32,10.0,NW,10.4,-,N/A,,Clear,310,2013-01-13 16:54:00
11:54 AM,17.1,3.0,54,30.32,10.0,WNW,8.1,-,N/A,,Clear,300,2013-01-13 17:54:00
12:54 PM,19.0,3.9,52,30.30,10.0,West,10.4,-,N/A,,Clear,280,2013-01-13 18:54:00
1:54 PM,19.9,5.0,52,30.29,10.0,WNW,10.4,-,N/A,,Clear,300,2013-01-13 19:54:00
2:54 PM,21.0,5.0,50,30.31,10.0,NW,11.5,-,N/A,,Clear,310,2013-01-13 20:54:00
3:54 PM,21.0,3.9,48,30.32,10.0,WNW,9.2,-,N/A,,Clear,300,2013-01-13 21:54:00
4:54 PM,19.9,3.0,48,30.34,10.0,WNW,9.2,-,N/A,,Clear,300,2013-01-13 22:54:00
5:54 PM,18.0,3.9,54,30.35,10.0,WNW,4.6,-,N/A,,Clear,300,2013-01-13 23:54:00
6:54 PM,16.0,5.0,62,30.36,10.0,West,3.5,-,N/A,,Clear,260,2013-01-14 00:54:00
7:54 PM,15.1,5.0,64,30.38,10.0,West,3.5,-,N/A,,Clear,260,2013-01-14 01:54:00
8:54 PM,8.1,1.9,76,30.38,10.0,North,3.5,-,N/A,,Clear,360,2013-01-14 02:54:00
9:54 PM,8.1,3.0,80,30.39,10.0,Calm,Calm,-,N/A,,Clear,0,2013-01-14 03:54:00
10:54 PM,10.9,3.9,73,30.41,10.0,Calm,Calm,-,N/A,,Clear,0,2013-01-14 04:54:00
11:54 PM,9.0,3.0,77,30.43,10.0,Calm,Calm,-,N/A,,Clear,0,2013-01-14 05:54:00